Regional Weather Roundup
Issued by NWS

Home | Current Version | Previous Version | Graphics & Text | Print | Product List | Glossary On
Versions: 1 2 3 4 5 6 7 8 9 10 11 12 13 14 15 16 17 18 19 20 21 22 23 24 25 26 27 28 29 30 31 32 33 34 35 36 37 38 39 40 41 42 43 44 45 46 47 48 49 50
706
ASUS45 KABQ 030410
RWRNM
NEW MEXICO REGIONAL WEATHER ROUNDUP
NATIONAL WEATHER SERVICE ALBUQUERQUE NM
900 PM MST FRI DEC 02 2016

NOTE: "FAIR" MEANS FEW OR NO CLOUDS BELOW 12,000 FEET AGL WITH NO
       SIGNIFICANT WEATHER OR OBSTRUCTIONS TO VISION.

      THIS PRODUCT IS RELEASED AS TWO VERSIONS.  ONE VERSION NEAR
      THE TOP OF THE HOUR CONTAINING PRELIMINARY DATA FROM ALBUQUERQUE
      AND OTHER STATIONS.  A FINAL VERSION WITH ADDITIONAL DATA IS
      ISSUED ABOUT 10 MINUTES AFTER THE HOUR.

NMZ501-503-504-510>518-030500-
NORTHWEST PLATEAU/NORTHCENTRAL MOUNTAINS

CITY           SKY/WX    TMP DP  RH WIND       PRES   REMARKS
FARMINGTON     CLOUDY    33  30  88 NE6       30.07R WCI  28
LOS ALAMOS     CLOUDY    32  25  76 SW7       30.09F WCI  26
SANTA FE       CLOUDY    32  23  69 S6        30.09S WCI  26
TAOS           CLOUDY    25  16  68 N8        30.10S WCI  16
ANGEL FIRE     CLOUDY    20  18  90 CALM      30.12S

$$
NMZ402-403-502-505>509-030500-
WESTCENTRAL MOUNTAINS/SOUTHWEST MOUNTAINS

CITY           SKY/WX    TMP DP  RH WIND       PRES   REMARKS
GALLUP         FAIR      31  19  61 NE15      30.04R WCI  20
GRANTS         FAIR      32  20  62 SE6       30.06R WCI  26

$$
NMZ407-409-411-412-030500-
SOUTHERN DESERTS

CITY           SKY/WX    TMP DP  RH WIND       PRES   REMARKS
DEMING         CLOUDY    45  39  79 NW10      29.93S
LAS CRUCES     CLOUDY    51  24  34 SE17G23   29.95R
HOLLOMAN AFB   FAIR      49  26  40 NW7       29.95F
T OR C         LGT RAIN  45  29  53 N14G24    29.95R

$$
NMZ519>523-030500-
CENTRAL VALLEYS/CENTRAL HIGHLANDS

CITY           SKY/WX    TMP DP  RH WIND       PRES   REMARKS
ALBUQUERQUE    MOCLDY    36  23  59 E29       30.04R WCI  23
DOUBLE EAGLE   MOCLDY    30  19  64 CALM      30.06R
MORIARTY ARPT  CLOUDY    31  21  65 E14G20    30.13R WCI  21
CLINES CORNERS LGT SNOW  24  22  91 E21G26    30.10S FOG     WCI   9
BELEN          MOCLDY    36  20  53 NW10      30.04R WCI  28
SOCORRO        CLOUDY    42  25  51 NE7       30.04R

$$
NMZ524>526-539-540-030500-
SOUTHCENTRAL MOUNTAINS

CITY           SKY/WX    TMP DP  RH WIND       PRES   REMARKS
RUIDOSO        MIX PCPN  28  25  86 SE7       30.08S WCI  21

$$
NMZ527>531-030500-
NORTHEAST HIGHLANDS/NORTHEAST PLAINS

CITY           SKY/WX    TMP DP  RH WIND       PRES   REMARKS
LAS VEGAS      LGT SNOW  24  23  96 NE9       30.16R FOG     WCI  14
RATON          FLURRIES  27  23  85 NE3       30.17S
CLAYTON        NOT AVBL

$$
NMZ532>537-030500-
EASTCENTRAL PLAINS

CITY           SKY/WX    TMP DP  RH WIND       PRES   REMARKS
TUCUMCARI      CLOUDY    36  30  79 NE17      30.16F WCI  26
CANNON AFB     CLOUDY    37  37 100 E16       30.12S WCI  28
CLOVIS AIRPORT CLOUDY    36  32  87 NE14      30.12S WCI  27

$$
NMZ028-029-538-030500-
SOUTHEAST PLAINS

CITY           SKY/WX    TMP DP  RH WIND       PRES   REMARKS
ROSWELL        CLOUDY    45  31  58 N16       30.09R
ARTESIA          N/A     45  37  76 NE14      30.08S
CARLSBAD       LGT RAIN  45  44  97 N10       30.06R
HOBBS          CLOUDY    39  39 100 NE14      30.08R FOG     WCI  31


$$




USA.gov is the U.S. government's official web portal to all federal, state and local government web resources and services.